LEON/VIRGEN_CAMINO current weather conditions

sailwx.info

Wind from 240 at 15 knots

Air temperature 7.0° C
Visibility: greater than 5.4 NM
Dewpoint 1.0° C

Last reported at 2019-Dec-11 15:30 UTC.
Time now 2019-Dec-11 16:38 UTC

Location: N 42°35' W 005°39'.
View on Google Maps.

See reports from other nearby stations

  
Tides and Currents Weather Stations Pressure Air Temp Water Temp Dewpoint Dewpoint Depression Visibility Wind Speed Wind Dir Waves Ship Positions
date/time (UTC)wind fromknots sea level pressurealtimeterstation pressurevisibilityair tempwater tempwave heightnotes
2019-Dec-11 15:30 240 15 5.4 7.0
2019-Dec-11 15:00 240 13 5.4 7.0
2019-Dec-11 14:30 250 14 5.4 7.0
2019-Dec-11 14:00 260 13 5.4 7.0
2019-Dec-11 13:30 290 12 5.4 8.0
2019-Dec-11 13:00 290 11 gusting 20 5.4 8.0
2019-Dec-11 12:30 290 13 gusting 22 5.4 7.0
2019-Dec-11 12:00 290 13 5.4 7.0
2019-Dec-11 11:30 280 11 5.4 7.0
2019-Dec-11 11:00 290 11 5.4 7.0
2019-Dec-11 10:30 290 9 5.4 6.0
2019-Dec-11 10:00 300 11 5.4 6.0
2019-Dec-11 09:30 290 6 5.4 5.0
2019-Dec-11 09:00 270 6 5.4 4.0
2019-Dec-11 08:30 280 6 5.4 3.0
2019-Dec-11 08:00 270 5 3.2 1.0 Fog in the vicinity.
2019-Dec-11 07:50 300 2 2.7 1.0 Mist.
2019-Dec-11 07:30 270 5 1.9 1.0 Mist.
2019-Dec-11 07:00 260 6 2.7 2.0 Mist.
2019-Dec-11 06:30 230 4 3.2 2.0 Precipitation.
2019-Dec-11 06:00 330 1 1.0 2.0 Precipitation. Mist.
2019-Dec-11 05:30 0.3 2.0 Fog.
2019-Dec-11 05:00 0.3 2.0 Fog.
2019-Dec-11 04:30 0.4 2.0 Fog.
2019-Dec-11 04:00 0.2 2.0 Fog.
2019-Dec-11 03:30 310 0 0.1 2.0 Fog.
2019-Dec-11 03:00 0.1 2.0 Fog.
2019-Dec-11 02:30 0.0 2.0 Fog.
2019-Dec-11 02:00 0.1 1.0 Fog.
2019-Dec-11 01:30 020 2 0.1 1.0 Fog.
2019-Dec-11 01:00 0.1 1.0 Fog.
2019-Dec-11 00:30 0.1 1.0 Fog.
2019-Dec-11 00:00 060 2 4.3 1.0
2019-Dec-10 23:30 5.4 2.0
2019-Dec-10 23:00 5.4 1.0
2019-Dec-10 22:30 5.4 1.0
2019-Dec-10 22:00 4.9-0.0
2019-Dec-10 21:30 5.4 1.0
2019-Dec-10 21:00 310 1 5.4-0.0
2019-Dec-10 20:30 290 2 5.4 1.0
2019-Dec-10 20:00 270 2 5.4-1.0
2019-Dec-10 19:30 5.4-0.0
2019-Dec-10 19:00 5.4 3.0
2019-Dec-10 18:30 120 0 5.4 3.0
2019-Dec-10 18:00 5.4 4.0
2019-Dec-10 17:30 5.4 4.0
2019-Dec-10 17:00 5.4 4.0
2019-Dec-10 16:30 140 2 5.4 5.0
2019-Dec-10 16:00 150 4 5.4 5.0
2019-Dec-10 15:30 150 4 5.4 5.0
2019-Dec-10 15:00 140 4 5.4 5.0
2019-Dec-10 14:30 140 5 5.4 5.0
2019-Dec-10 14:00 5.4 6.0
2019-Dec-10 13:30 160 2 5.4 6.0
2019-Dec-10 13:00 160 2 5.4 6.0
2019-Dec-10 12:30 180 2 5.4 6.0
2019-Dec-10 12:00 170 2 5.4 5.0
2019-Dec-10 11:30 190 2 5.4 5.0
2019-Dec-10 11:00 5.4 4.0
2019-Dec-10 10:30 5.4 3.0
2019-Dec-10 10:00 5.4 2.0
2019-Dec-10 09:30 5.4 2.0
2019-Dec-10 09:00 5.4 1.0
2019-Dec-10 08:30 5.4-0.0
2019-Dec-10 08:00 5.4-0.0
2019-Dec-10 07:30 310 0 5.4-3.0
2019-Dec-10 07:00 330 5 5.4-2.0
2019-Dec-10 06:30 310 2 5.4-5.0
2019-Dec-10 06:00 050 1 5.4-3.0
2019-Dec-10 05:30 320 2 5.4-4.0
2019-Dec-10 05:00 360 4 5.4-1.0
2019-Dec-10 04:30 330 4 5.4-5.0
2019-Dec-10 04:00 5.4-4.0
2019-Dec-10 03:30 310 0 5.4-3.0
2019-Dec-10 03:00 5.4-3.0
2019-Dec-10 02:30 320 4 5.4-3.0
2019-Dec-10 02:00 010 4 5.4-0.0
2019-Dec-10 01:30 010 2 4.9-0.0
2019-Dec-10 01:00 350 4 5.4-1.0
2019-Dec-10 00:30 5.4-1.0
2019-Dec-10 00:00 350 6 5.4-0.0
2019-Dec-09 23:30 340 2 5.4-2.0
2019-Dec-09 23:00 350 2 5.4-1.0
2019-Dec-09 22:30 5.4-0.0
2019-Dec-09 22:00 250 2 5.4-0.0
2019-Dec-09 21:30 5.4 1.0
2019-Dec-09 21:00 280 2 5.4-0.0
2019-Dec-09 20:30 280 2 5.4 1.0
2019-Dec-09 20:00 340 4 5.4 4.0
2019-Dec-09 19:30 330 6 5.4 5.0
2019-Dec-09 19:00 310 6 5.4 5.0
2019-Dec-09 18:30 350 5 5.4 5.0
2019-Dec-09 18:00 320 2 5.4 3.0
2019-Dec-09 17:30 350 2 5.4 6.0
2019-Dec-09 17:00 350 5 5.4 7.0
2019-Dec-09 16:30 120 0 5.4 8.0
2019-Dec-09 16:00 350 4 5.4 9.0